Year,Month,Day,Hour,Minute,Value (Times are PST for temperature in C)
2010,08,17,00,00,17.40
2010,08,17,00,01,17.40
2010,08,17,00,02,17.40
2010,08,17,00,03,17.40
2010,08,17,00,04,17.40
2010,08,17,00,05,17.40
2010,08,17,00,06,17.40
2010,08,17,00,07,17.30
2010,08,17,00,08,17.30
2010,08,17,00,09,17.30
2010,08,17,00,10,17.20
2010,08,17,00,11,17.20
2010,08,17,00,12,17.10
2010,08,17,00,13,17.10
2010,08,17,00,14,17.10
2010,08,17,00,15,17.00
2010,08,17,00,16,17.00
2010,08,17,00,17,17.00
2010,08,17,00,18,16.90
2010,08,17,00,19,16.90
2010,08,17,00,20,16.90
2010,08,17,00,21,16.90
2010,08,17,00,22,16.90
2010,08,17,00,23,16.90
2010,08,17,00,24,16.90
2010,08,17,00,25,16.90
2010,08,17,00,26,16.90
2010,08,17,00,27,16.90
2010,08,17,00,28,16.90
2010,08,17,00,29,16.90
2010,08,17,00,30,16.90
2010,08,17,00,31,16.90
2010,08,17,00,32,17.00
2010,08,17,00,33,17.00
2010,08,17,00,34,17.00
2010,08,17,00,35,17.00
2010,08,17,00,36,17.00
2010,08,17,00,37,17.00
2010,08,17,00,38,17.00
2010,08,17,00,39,16.90
2010,08,17,00,40,16.90
2010,08,17,00,41,16.90
2010,08,17,00,42,16.90
2010,08,17,00,43,16.90
2010,08,17,00,44,16.90
2010,08,17,00,45,16.90
2010,08,17,00,46,16.90
2010,08,17,00,47,16.80
2010,08,17,00,48,16.80
2010,08,17,00,49,16.80
2010,08,17,00,50,16.80
2010,08,17,00,51,16.80
2010,08,17,00,52,16.80
2010,08,17,00,53,16.80
2010,08,17,00,54,16.80
2010,08,17,00,55,16.80
2010,08,17,00,56,16.70
2010,08,17,00,57,16.70
2010,08,17,00,58,16.60
2010,08,17,00,59,16.60
2010,08,17,01,00,16.60
2010,08,17,01,01,16.50
2010,08,17,01,02,16.50
2010,08,17,01,03,16.40
2010,08,17,01,04,16.40
2010,08,17,01,05,16.40
2010,08,17,01,06,16.40
2010,08,17,01,07,16.30
2010,08,17,01,08,16.30
2010,08,17,01,09,16.30
2010,08,17,01,10,16.30
2010,08,17,01,11,16.30
2010,08,17,01,12,16.30
2010,08,17,01,13,16.30
2010,08,17,01,14,16.30
2010,08,17,01,15,16.20
2010,08,17,01,16,16.20
2010,08,17,01,17,16.20
2010,08,17,01,18,16.20
2010,08,17,01,19,16.20
2010,08,17,01,20,16.20
2010,08,17,01,21,16.20
2010,08,17,01,22,16.20
2010,08,17,01,23,16.20
2010,08,17,01,24,16.20
2010,08,17,01,25,16.20
2010,08,17,01,26,16.20
2010,08,17,01,27,16.20
2010,08,17,01,28,16.20
2010,08,17,01,29,16.20
2010,08,17,01,30,16.20
2010,08,17,01,31,16.20
2010,08,17,01,32,16.20
2010,08,17,01,33,16.20
2010,08,17,01,34,16.20
2010,08,17,01,35,16.20
2010,08,17,01,36,16.10
2010,08,17,01,37,16.10
2010,08,17,01,38,16.10
2010,08,17,01,39,16.10
2010,08,17,01,40,16.10
2010,08,17,01,41,16.10
2010,08,17,01,42,16.10
2010,08,17,01,43,16.00
2010,08,17,01,44,16.00
2010,08,17,01,45,16.00
2010,08,17,01,46,15.90
2010,08,17,01,47,15.90
2010,08,17,01,48,15.90
2010,08,17,01,49,15.90
2010,08,17,01,50,15.80
2010,08,17,01,51,15.80
2010,08,17,01,52,15.80
2010,08,17,01,53,15.80
2010,08,17,01,54,15.80
2010,08,17,01,55,15.80
2010,08,17,01,56,15.80
2010,08,17,01,57,15.80
2010,08,17,01,58,15.80
2010,08,17,01,59,15.80
2010,08,17,02,00,15.80
2010,08,17,02,01,15.80
2010,08,17,02,02,15.80
2010,08,17,02,03,15.80
2010,08,17,02,04,15.80
2010,08,17,02,05,15.70
2010,08,17,02,06,15.70
2010,08,17,02,07,15.70
2010,08,17,02,08,15.70
2010,08,17,02,09,15.60
2010,08,17,02,10,15.60
2010,08,17,02,11,15.60
2010,08,17,02,12,15.60
2010,08,17,02,13,15.60
2010,08,17,02,14,15.60
2010,08,17,02,15,15.60
2010,08,17,02,16,15.50
2010,08,17,02,17,15.50
2010,08,17,02,18,15.40
2010,08,17,02,19,15.40
2010,08,17,02,20,15.40
2010,08,17,02,21,15.40
2010,08,17,02,22,15.30
2010,08,17,02,23,15.30
2010,08,17,02,24,15.30
2010,08,17,02,25,15.30
2010,08,17,02,26,15.30
2010,08,17,02,27,15.30
2010,08,17,02,28,15.30
2010,08,17,02,29,15.30
2010,08,17,02,30,15.30
2010,08,17,02,31,15.30
2010,08,17,02,32,15.30
2010,08,17,02,33,15.30
2010,08,17,02,34,15.30
2010,08,17,02,35,15.30
2010,08,17,02,36,15.30
2010,08,17,02,37,15.30
2010,08,17,02,38,15.20
2010,08,17,02,39,15.20
2010,08,17,02,40,15.20
2010,08,17,02,41,15.20
2010,08,17,02,42,15.20
2010,08,17,02,43,15.20
2010,08,17,02,44,15.20
2010,08,17,02,45,15.20
2010,08,17,02,46,15.20
2010,08,17,02,47,15.20
2010,08,17,02,48,15.20
2010,08,17,02,49,15.20
2010,08,17,02,50,15.20
2010,08,17,02,51,15.20
2010,08,17,02,52,15.20
2010,08,17,02,53,15.10
2010,08,17,02,54,15.10
2010,08,17,02,55,15.10
2010,08,17,02,56,15.10
2010,08,17,02,57,15.10
2010,08,17,02,58,15.00
2010,08,17,02,59,15.00
2010,08,17,03,00,15.00
2010,08,17,03,01,14.90
2010,08,17,03,02,14.90
2010,08,17,03,03,14.90
2010,08,17,03,04,14.90
2010,08,17,03,05,14.90
2010,08,17,03,06,14.90
2010,08,17,03,07,14.80
2010,08,17,03,08,14.80
2010,08,17,03,09,14.80
2010,08,17,03,10,14.80
2010,08,17,03,11,14.80
2010,08,17,03,12,14.70
2010,08,17,03,13,14.70
2010,08,17,03,14,14.70
2010,08,17,03,15,14.70
2010,08,17,03,16,14.70
2010,08,17,03,17,14.70
2010,08,17,03,18,14.60
2010,08,17,03,19,14.60
2010,08,17,03,20,14.60
2010,08,17,03,21,14.50
2010,08,17,03,22,14.50
2010,08,17,03,23,14.40
2010,08,17,03,24,14.40
2010,08,17,03,25,14.40
2010,08,17,03,26,14.30
2010,08,17,03,27,14.30
2010,08,17,03,28,14.30
2010,08,17,03,29,14.30
2010,08,17,03,30,14.30
2010,08,17,03,31,14.20
2010,08,17,03,32,14.20
2010,08,17,03,33,14.20
2010,08,17,03,34,14.20
2010,08,17,03,35,14.20
2010,08,17,03,36,14.10
2010,08,17,03,37,14.10
2010,08,17,03,38,14.10
2010,08,17,03,39,14.10
2010,08,17,03,40,14.10
2010,08,17,03,41,14.10
2010,08,17,03,42,14.00
2010,08,17,03,43,14.00
2010,08,17,03,44,14.00
2010,08,17,03,45,14.00
2010,08,17,03,46,13.90
2010,08,17,03,47,13.90
2010,08,17,03,48,13.90
2010,08,17,03,49,13.90
2010,08,17,03,50,13.90
2010,08,17,03,51,13.90
2010,08,17,03,52,13.80
2010,08,17,03,53,13.80
2010,08,17,03,54,13.80
2010,08,17,03,55,13.80
2010,08,17,03,56,13.70
2010,08,17,03,57,13.70
2010,08,17,03,58,13.70
2010,08,17,03,59,13.60
2010,08,17,04,00,13.60
2010,08,17,04,01,13.60
2010,08,17,04,02,13.60
2010,08,17,04,03,13.50
2010,08,17,04,04,13.50
2010,08,17,04,05,13.40
2010,08,17,04,06,13.40
2010,08,17,04,07,13.40
2010,08,17,04,08,13.40
2010,08,17,04,09,13.40
2010,08,17,04,10,13.40
2010,08,17,04,11,13.40
2010,08,17,04,12,13.30
2010,08,17,04,13,13.30
2010,08,17,04,14,13.30
2010,08,17,04,15,13.30
2010,08,17,04,16,13.30
2010,08,17,04,17,13.30
2010,08,17,04,18,13.30
2010,08,17,04,19,13.30
2010,08,17,04,20,13.30
2010,08,17,04,21,13.30
2010,08,17,04,22,13.30
2010,08,17,04,23,13.30
2010,08,17,04,24,13.30
2010,08,17,04,25,13.30
2010,08,17,04,26,13.30
2010,08,17,04,27,13.30
2010,08,17,04,28,13.30
2010,08,17,04,29,13.30
2010,08,17,04,30,13.30
2010,08,17,04,31,13.30
2010,08,17,04,32,13.30
2010,08,17,04,33,13.30
2010,08,17,04,34,13.30
2010,08,17,04,35,13.30
2010,08,17,04,36,13.30
2010,08,17,04,37,13.30
2010,08,17,04,38,13.30
2010,08,17,04,39,13.30
2010,08,17,04,40,13.20
2010,08,17,04,41,13.20
2010,08,17,04,42,13.20
2010,08,17,04,43,13.20
2010,08,17,04,44,13.20
2010,08,17,04,45,13.20
2010,08,17,04,46,13.20
2010,08,17,04,47,13.20
2010,08,17,04,48,13.20
2010,08,17,04,49,13.10
2010,08,17,04,50,13.10
2010,08,17,04,51,13.10
2010,08,17,04,52,13.10
2010,08,17,04,53,13.10
2010,08,17,04,54,13.10
2010,08,17,04,55,13.10
2010,08,17,04,56,13.10
2010,08,17,04,57,13.10
2010,08,17,04,58,13.10
2010,08,17,04,59,13.10
2010,08,17,05,00,13.10
2010,08,17,05,01,13.00
2010,08,17,05,02,13.00
2010,08,17,05,03,13.00
2010,08,17,05,04,12.90
2010,08,17,05,05,12.90
2010,08,17,05,06,12.90
2010,08,17,05,07,12.90
2010,08,17,05,08,12.80
2010,08,17,05,09,12.80
2010,08,17,05,10,12.80
2010,08,17,05,11,12.80
2010,08,17,05,12,12.80
2010,08,17,05,13,12.80
2010,08,17,05,14,12.80
2010,08,17,05,15,12.70
2010,08,17,05,16,12.70
2010,08,17,05,17,12.70
2010,08,17,05,18,12.70
2010,08,17,05,19,12.70
2010,08,17,05,20,12.60
2010,08,17,05,21,12.60
2010,08,17,05,22,12.60
2010,08,17,05,23,12.50
2010,08,17,05,24,12.50
2010,08,17,05,25,12.50
2010,08,17,05,26,12.40
2010,08,17,05,27,12.40
2010,08,17,05,28,12.40
2010,08,17,05,29,12.40
2010,08,17,05,30,12.40
2010,08,17,05,31,12.40
2010,08,17,05,32,12.40
2010,08,17,05,33,12.40
2010,08,17,05,34,12.40
2010,08,17,05,35,12.40
2010,08,17,05,36,12.40
2010,08,17,05,37,12.40
2010,08,17,05,38,12.40
2010,08,17,05,39,12.40
2010,08,17,05,40,12.40
2010,08,17,05,41,12.30
2010,08,17,05,42,12.30
2010,08,17,05,43,12.30
2010,08,17,05,44,12.30
2010,08,17,05,45,12.30
2010,08,17,05,46,12.30
2010,08,17,05,47,12.30
2010,08,17,05,48,12.30
2010,08,17,05,49,12.30
2010,08,17,05,50,12.40
2010,08,17,05,51,12.40
2010,08,17,05,52,12.40
2010,08,17,05,53,12.40
2010,08,17,05,54,12.40
2010,08,17,05,55,12.40
2010,08,17,05,56,12.40
2010,08,17,05,57,12.40
2010,08,17,05,58,12.40
2010,08,17,05,59,12.40
2010,08,17,06,00,12.30
2010,08,17,06,01,12.30
2010,08,17,06,02,12.30
2010,08,17,06,03,12.30
2010,08,17,06,04,12.30
2010,08,17,06,05,12.30
2010,08,17,06,06,12.30
2010,08,17,06,07,12.30
2010,08,17,06,08,12.30
2010,08,17,06,09,12.30
2010,08,17,06,10,12.30
2010,08,17,06,11,12.30
2010,08,17,06,12,12.30
2010,08,17,06,13,12.30
2010,08,17,06,14,12.20
2010,08,17,06,15,12.20
2010,08,17,06,16,12.20
2010,08,17,06,17,12.20
2010,08,17,06,18,12.20
2010,08,17,06,19,12.20
2010,08,17,06,20,12.20
2010,08,17,06,21,12.20
2010,08,17,06,22,12.30
2010,08,17,06,23,12.30
2010,08,17,06,24,12.30
2010,08,17,06,25,12.30
2010,08,17,06,26,12.30
2010,08,17,06,27,12.30
2010,08,17,06,28,12.30
2010,08,17,06,29,12.30
2010,08,17,06,30,12.30
2010,08,17,06,31,12.30
2010,08,17,06,32,12.30
2010,08,17,06,33,12.30
2010,08,17,06,34,12.30
2010,08,17,06,35,12.30
2010,08,17,06,36,12.30
2010,08,17,06,37,12.30
2010,08,17,06,38,12.30
2010,08,17,06,39,12.30
2010,08,17,06,40,12.30
2010,08,17,06,41,12.30
2010,08,17,06,42,12.30
2010,08,17,06,43,12.30
2010,08,17,06,44,12.30
2010,08,17,06,45,12.30
2010,08,17,06,46,12.30
2010,08,17,06,47,12.30
2010,08,17,06,48,12.30
2010,08,17,06,49,12.30
2010,08,17,06,50,12.30
2010,08,17,06,51,12.30
2010,08,17,06,52,12.30
2010,08,17,06,53,12.40
2010,08,17,06,54,12.40
2010,08,17,06,55,12.40
2010,08,17,06,56,12.50
2010,08,17,06,57,12.50
2010,08,17,06,58,12.60
2010,08,17,06,59,12.60
2010,08,17,07,00,12.70
2010,08,17,07,01,12.70
2010,08,17,07,02,12.80
2010,08,17,07,03,12.80
2010,08,17,07,04,12.90
2010,08,17,07,05,12.90
2010,08,17,07,06,12.90
2010,08,17,07,07,13.00
2010,08,17,07,08,13.00
2010,08,17,07,09,13.10
2010,08,17,07,10,13.20
2010,08,17,07,11,13.30
2010,08,17,07,12,13.30
2010,08,17,07,13,13.40
2010,08,17,07,14,13.40
2010,08,17,07,15,13.50
2010,08,17,07,16,13.60
2010,08,17,07,17,13.70
2010,08,17,07,18,13.70
2010,08,17,07,19,13.80
2010,08,17,07,20,13.90
2010,08,17,07,21,13.90
2010,08,17,07,22,14.00
2010,08,17,07,23,14.10
2010,08,17,07,24,14.10
2010,08,17,07,25,14.20
2010,08,17,07,26,14.30
2010,08,17,07,27,14.40
2010,08,17,07,28,14.40
2010,08,17,07,29,14.50
2010,08,17,07,30,14.50
2010,08,17,07,31,14.60
2010,08,17,07,32,14.60
2010,08,17,07,33,14.70
2010,08,17,07,34,14.80
2010,08,17,07,35,14.80
2010,08,17,07,36,14.90
2010,08,17,07,37,15.00
2010,08,17,07,38,15.00
2010,08,17,07,39,15.10
2010,08,17,07,40,15.20
2010,08,17,07,41,15.30
2010,08,17,07,42,15.40
2010,08,17,07,43,15.40
2010,08,17,07,44,15.50
2010,08,17,07,45,15.60
2010,08,17,07,46,15.60
2010,08,17,07,47,15.60
2010,08,17,07,48,15.70
2010,08,17,07,49,15.70
2010,08,17,07,50,15.70
2010,08,17,07,51,15.70
2010,08,17,07,52,15.70
2010,08,17,07,53,15.70
2010,08,17,07,54,15.80
2010,08,17,07,55,15.80
2010,08,17,07,56,15.80
2010,08,17,07,57,15.80
2010,08,17,07,58,15.90
2010,08,17,07,59,16.00
2010,08,17,08,00,16.00
2010,08,17,08,01,16.10
2010,08,17,08,02,16.10
2010,08,17,08,03,16.10
2010,08,17,08,04,16.10
2010,08,17,08,05,16.10
2010,08,17,08,06,16.10
2010,08,17,08,07,16.10
2010,08,17,08,08,16.10
2010,08,17,08,09,16.10
2010,08,17,08,10,16.10
2010,08,17,08,11,16.10
2010,08,17,08,12,16.20
2010,08,17,08,13,16.20
2010,08,17,08,14,16.20
2010,08,17,08,15,16.20
2010,08,17,08,16,16.30
2010,08,17,08,17,16.40
2010,08,17,08,18,16.40
2010,08,17,08,19,16.50
2010,08,17,08,20,16.60
2010,08,17,08,21,16.70
2010,08,17,08,22,16.80
2010,08,17,08,23,16.80
2010,08,17,08,24,16.90
2010,08,17,08,25,16.90
2010,08,17,08,26,17.00
2010,08,17,08,27,17.00
2010,08,17,08,28,17.00
2010,08,17,08,29,17.10
2010,08,17,08,30,17.10
2010,08,17,08,31,17.10
2010,08,17,08,32,17.10
2010,08,17,08,33,17.20
2010,08,17,08,34,17.20
2010,08,17,08,35,17.30
2010,08,17,08,36,17.40
2010,08,17,08,37,17.50
2010,08,17,08,38,17.60
2010,08,17,08,39,17.80
2010,08,17,08,40,17.90
2010,08,17,08,41,18.00
2010,08,17,08,42,18.10
2010,08,17,08,43,18.20
2010,08,17,08,44,18.20
2010,08,17,08,45,18.30
2010,08,17,08,46,18.40
2010,08,17,08,47,18.40
2010,08,17,08,48,18.50
2010,08,17,08,49,18.50
2010,08,17,08,50,18.60
2010,08,17,08,51,18.60
2010,08,17,08,52,18.70
2010,08,17,08,53,18.80
2010,08,17,08,54,18.80
2010,08,17,08,55,18.90
2010,08,17,08,56,18.90
2010,08,17,08,57,19.00
2010,08,17,08,58,19.00
2010,08,17,08,59,19.10
2010,08,17,09,00,19.10
2010,08,17,09,01,19.20
2010,08,17,09,02,19.30
2010,08,17,09,03,19.30
2010,08,17,09,04,19.40
2010,08,17,09,05,19.50
2010,08,17,09,06,19.60
2010,08,17,09,07,19.60
2010,08,17,09,08,19.70
2010,08,17,09,09,19.80
2010,08,17,09,10,19.90
2010,08,17,09,11,19.90
2010,08,17,09,12,20.00
2010,08,17,09,13,20.10
2010,08,17,09,14,20.20
2010,08,17,09,15,20.20
2010,08,17,09,16,20.30
2010,08,17,09,17,20.30
2010,08,17,09,18,20.30
2010,08,17,09,19,20.40
2010,08,17,09,20,20.40
2010,08,17,09,21,20.50
2010,08,17,09,22,20.50
2010,08,17,09,23,20.60
2010,08,17,09,24,20.60
2010,08,17,09,25,20.60
2010,08,17,09,26,20.70
2010,08,17,09,27,20.70
2010,08,17,09,28,20.80
2010,08,17,09,29,20.80
2010,08,17,09,30,20.80
2010,08,17,09,31,20.90
2010,08,17,09,32,21.00
2010,08,17,09,33,21.10
2010,08,17,09,34,21.20
2010,08,17,09,35,21.30
2010,08,17,09,36,21.30
2010,08,17,09,37,21.40
2010,08,17,09,38,21.40
2010,08,17,09,39,21.50
2010,08,17,09,40,21.50
2010,08,17,09,41,21.60
2010,08,17,09,42,21.50
2010,08,17,09,43,21.50
2010,08,17,09,44,21.50
2010,08,17,09,45,21.60
2010,08,17,09,46,21.60
2010,08,17,09,47,21.70
2010,08,17,09,48,21.70
2010,08,17,09,49,21.70
2010,08,17,09,50,21.80
2010,08,17,09,51,21.80
2010,08,17,09,52,21.80
2010,08,17,09,53,21.90
2010,08,17,09,54,21.90
2010,08,17,09,55,21.90
2010,08,17,09,56,21.90
2010,08,17,09,57,21.90
2010,08,17,09,58,21.90
2010,08,17,09,59,21.90
2010,08,17,10,00,21.80
2010,08,17,10,01,21.70
2010,08,17,10,02,21.70
2010,08,17,10,03,21.60
2010,08,17,10,04,21.60
2010,08,17,10,05,21.60
2010,08,17,10,06,21.70
2010,08,17,10,07,21.70
2010,08,17,10,08,21.80
2010,08,17,10,09,21.80
2010,08,17,10,10,21.90
2010,08,17,10,11,22.00
2010,08,17,10,12,22.00
2010,08,17,10,13,22.00
2010,08,17,10,14,22.00
2010,08,17,10,15,22.00
2010,08,17,10,16,21.80
2010,08,17,10,17,21.50
2010,08,17,10,18,21.30
2010,08,17,10,19,21.20
2010,08,17,10,20,21.00
2010,08,17,10,21,20.80
2010,08,17,10,22,20.70
2010,08,17,10,23,20.60
2010,08,17,10,24,20.50
2010,08,17,10,25,20.30
2010,08,17,10,26,20.30
2010,08,17,10,27,20.30
2010,08,17,10,28,20.20
2010,08,17,10,29,20.20
2010,08,17,10,30,20.20
2010,08,17,10,31,20.30
2010,08,17,10,32,20.30
2010,08,17,10,33,20.20
2010,08,17,10,34,20.10
2010,08,17,10,35,20.00
2010,08,17,10,36,19.90
2010,08,17,10,37,19.90
2010,08,17,10,38,19.90
2010,08,17,10,39,19.80
2010,08,17,10,40,19.80
2010,08,17,10,41,19.70
2010,08,17,10,42,19.70
2010,08,17,10,43,19.70
2010,08,17,10,44,19.70
2010,08,17,10,45,19.70
2010,08,17,10,46,19.80
2010,08,17,10,47,19.80
2010,08,17,10,48,19.80
2010,08,17,10,49,19.90
2010,08,17,10,50,20.00
2010,08,17,10,51,20.00
2010,08,17,10,52,20.10
2010,08,17,10,53,20.10
2010,08,17,10,54,20.10
2010,08,17,10,55,20.10
2010,08,17,10,56,20.10
2010,08,17,10,57,20.00
2010,08,17,10,58,19.90
2010,08,17,10,59,19.90
2010,08,17,11,00,19.90
2010,08,17,11,01,19.90
2010,08,17,11,02,19.90
2010,08,17,11,03,19.80
2010,08,17,11,04,19.80
2010,08,17,11,05,19.80
2010,08,17,11,06,19.80
2010,08,17,11,07,19.80
2010,08,17,11,08,19.90
2010,08,17,11,09,19.90
2010,08,17,11,10,20.00
2010,08,17,11,11,20.10
2010,08,17,11,12,20.20
2010,08,17,11,13,20.30
2010,08,17,11,14,20.40
2010,08,17,11,15,20.50
2010,08,17,11,16,20.60
2010,08,17,11,17,20.60
2010,08,17,11,18,20.70
2010,08,17,11,19,20.70
2010,08,17,11,20,20.70
2010,08,17,11,21,20.70
2010,08,17,11,22,20.70
2010,08,17,11,23,20.70
2010,08,17,11,24,20.80
2010,08,17,11,25,20.80
2010,08,17,11,26,20.90
2010,08,17,11,27,21.00
2010,08,17,11,28,21.10
2010,08,17,11,29,21.10
2010,08,17,11,30,21.10
2010,08,17,11,31,21.20
2010,08,17,11,32,21.20
2010,08,17,11,33,21.20
2010,08,17,11,34,21.30
2010,08,17,11,35,21.30
2010,08,17,11,36,21.30
2010,08,17,11,37,21.40
2010,08,17,11,38,21.40
2010,08,17,11,39,21.40
2010,08,17,11,40,21.50
2010,08,17,11,41,21.60
2010,08,17,11,42,21.60
2010,08,17,11,43,21.60
2010,08,17,11,44,21.70
2010,08,17,11,45,21.80
2010,08,17,11,46,21.90
2010,08,17,11,47,22.00
2010,08,17,11,48,22.00
2010,08,17,11,49,22.10
2010,08,17,11,50,22.20
2010,08,17,11,51,22.20
2010,08,17,11,52,22.30
2010,08,17,11,53,22.30
2010,08,17,11,54,22.30
2010,08,17,11,55,22.20
2010,08,17,11,56,22.20
2010,08,17,11,57,22.20
2010,08,17,11,58,22.30
2010,08,17,11,59,22.40
2010,08,17,12,00,22.40
2010,08,17,12,01,22.50
2010,08,17,12,02,22.50
2010,08,17,12,03,22.60
2010,08,17,12,04,22.60
2010,08,17,12,05,22.60
2010,08,17,12,06,22.70
2010,08,17,12,07,22.70
2010,08,17,12,08,22.70
2010,08,17,12,09,22.70
2010,08,17,12,10,22.70
2010,08,17,12,11,22.80
2010,08,17,12,12,22.80
2010,08,17,12,13,22.80
2010,08,17,12,14,22.70
2010,08,17,12,15,22.60
2010,08,17,12,16,22.50
2010,08,17,12,17,22.50
2010,08,17,12,18,22.40
2010,08,17,12,19,22.40
2010,08,17,12,20,22.40
2010,08,17,12,21,22.40
2010,08,17,12,22,22.50
2010,08,17,12,23,22.60
2010,08,17,12,24,22.70
2010,08,17,12,25,22.70
2010,08,17,12,26,22.80
2010,08,17,12,27,22.80
2010,08,17,12,28,22.80
2010,08,17,12,29,22.80
2010,08,17,12,30,22.70
2010,08,17,12,31,22.60
2010,08,17,12,32,22.60
2010,08,17,12,33,22.50
2010,08,17,12,34,22.40
2010,08,17,12,35,22.40
2010,08,17,12,36,22.30
2010,08,17,12,37,22.30
2010,08,17,12,38,22.40
2010,08,17,12,39,22.40
2010,08,17,12,40,22.30
2010,08,17,12,41,22.30
2010,08,17,12,42,22.20
2010,08,17,12,43,22.10
2010,08,17,12,44,22.00
2010,08,17,12,45,22.00
2010,08,17,12,46,22.00
2010,08,17,12,47,22.00
2010,08,17,12,48,22.00
2010,08,17,12,49,22.00
2010,08,17,12,50,22.00
2010,08,17,12,51,22.00
2010,08,17,12,52,21.90
2010,08,17,12,53,21.90
2010,08,17,12,54,21.90
2010,08,17,12,55,21.90
2010,08,17,12,56,21.90
2010,08,17,12,57,21.90
2010,08,17,12,58,21.90
2010,08,17,12,59,22.00
2010,08,17,13,00,22.00
2010,08,17,13,01,22.10
2010,08,17,13,02,22.20
2010,08,17,13,03,22.30
2010,08,17,13,04,22.40
2010,08,17,13,05,22.50
2010,08,17,13,06,22.60
2010,08,17,13,07,22.60
2010,08,17,13,08,22.60
2010,08,17,13,09,22.60
2010,08,17,13,10,22.60
2010,08,17,13,11,22.60
2010,08,17,13,12,22.70
2010,08,17,13,13,22.70
2010,08,17,13,14,22.70
2010,08,17,13,15,22.80
2010,08,17,13,16,22.80
2010,08,17,13,17,22.80
2010,08,17,13,18,22.80
2010,08,17,13,19,22.80
2010,08,17,13,20,22.80
2010,08,17,13,21,22.80
2010,08,17,13,22,22.80
2010,08,17,13,23,22.80
2010,08,17,13,24,22.80
2010,08,17,13,25,22.70
2010,08,17,13,26,22.70
2010,08,17,13,27,22.80
2010,08,17,13,28,22.80
2010,08,17,13,29,22.80
2010,08,17,13,30,22.80
2010,08,17,13,31,22.90
2010,08,17,13,32,22.90
2010,08,17,13,33,23.00
2010,08,17,13,34,23.00
2010,08,17,13,35,23.00
2010,08,17,13,36,23.20
2010,08,17,13,37,23.30
2010,08,17,13,38,23.40
2010,08,17,13,39,23.50
2010,08,17,13,40,23.50
2010,08,17,13,41,23.60
2010,08,17,13,42,23.60
2010,08,17,13,43,23.70
2010,08,17,13,44,23.70
2010,08,17,13,45,23.80
2010,08,17,13,46,23.80
2010,08,17,13,47,23.70
2010,08,17,13,48,23.80
2010,08,17,13,49,23.80
2010,08,17,13,50,23.90
2010,08,17,13,51,24.00
2010,08,17,13,52,24.00
2010,08,17,13,53,24.00
2010,08,17,13,54,24.00
2010,08,17,13,55,24.10
2010,08,17,13,56,24.10
2010,08,17,13,57,24.20
2010,08,17,13,58,24.20
2010,08,17,13,59,24.20
2010,08,17,14,00,24.20
2010,08,17,14,01,24.20
2010,08,17,14,02,24.20
2010,08,17,14,03,24.20
2010,08,17,14,04,24.10
2010,08,17,14,05,24.00
2010,08,17,14,06,24.00
2010,08,17,14,07,23.90
2010,08,17,14,08,23.90
2010,08,17,14,09,23.80
2010,08,17,14,10,23.80
2010,08,17,14,11,23.80
2010,08,17,14,12,23.70
2010,08,17,14,13,23.70
2010,08,17,14,14,23.60
2010,08,17,14,15,23.60
2010,08,17,14,16,23.60
2010,08,17,14,17,23.60
2010,08,17,14,18,23.60
2010,08,17,14,19,23.70
2010,08,17,14,20,23.80
2010,08,17,14,21,23.90
2010,08,17,14,22,24.00
2010,08,17,14,23,24.10
2010,08,17,14,24,24.20
2010,08,17,14,25,24.20
2010,08,17,14,26,24.20
2010,08,17,14,27,24.30
2010,08,17,14,28,24.40
2010,08,17,14,29,24.60
2010,08,17,14,30,24.70
2010,08,17,14,31,24.70
2010,08,17,14,32,24.60
2010,08,17,14,33,24.60
2010,08,17,14,34,24.60
2010,08,17,14,35,24.70
2010,08,17,14,36,24.70
2010,08,17,14,37,24.70
2010,08,17,14,38,24.80
2010,08,17,14,39,24.80
2010,08,17,14,40,24.80
2010,08,17,14,41,24.90
2010,08,17,14,42,24.90
2010,08,17,14,43,24.90
2010,08,17,14,44,24.90
2010,08,17,14,45,24.90
2010,08,17,14,46,24.90
2010,08,17,14,47,24.90
2010,08,17,14,48,24.80
2010,08,17,14,49,24.90
2010,08,17,14,50,24.90
2010,08,17,14,51,24.90
2010,08,17,14,52,25.00
2010,08,17,14,53,25.00
2010,08,17,14,54,25.00
2010,08,17,14,55,25.10
2010,08,17,14,56,25.10
2010,08,17,14,57,25.20
2010,08,17,14,58,25.30
2010,08,17,14,59,25.30
2010,08,17,15,00,25.30
2010,08,17,15,01,25.20
2010,08,17,15,02,25.10
2010,08,17,15,03,25.00
2010,08,17,15,04,24.90
2010,08,17,15,05,24.90
2010,08,17,15,06,24.90
2010,08,17,15,07,25.00
2010,08,17,15,08,25.00
2010,08,17,15,09,24.90
2010,08,17,15,10,25.00
2010,08,17,15,11,25.00
2010,08,17,15,12,25.10
2010,08,17,15,13,25.10
2010,08,17,15,14,25.10
2010,08,17,15,15,25.20
2010,08,17,15,16,25.10
2010,08,17,15,17,25.10
2010,08,17,15,18,25.10
2010,08,17,15,19,25.10
2010,08,17,15,20,25.10
2010,08,17,15,21,25.10
2010,08,17,15,22,25.10
2010,08,17,15,23,25.10
2010,08,17,15,24,25.10
2010,08,17,15,25,25.20
2010,08,17,15,26,25.20
2010,08,17,15,27,25.20
2010,08,17,15,28,25.20
2010,08,17,15,29,25.20
2010,08,17,15,30,25.20
2010,08,17,15,31,25.20
2010,08,17,15,32,25.20
2010,08,17,15,33,25.30
2010,08,17,15,34,25.30
2010,08,17,15,35,25.30
2010,08,17,15,36,25.30
2010,08,17,15,37,25.30
2010,08,17,15,38,25.30
2010,08,17,15,39,25.20
2010,08,17,15,40,25.20
2010,08,17,15,41,25.20
2010,08,17,15,42,25.10
2010,08,17,15,43,25.10
2010,08,17,15,44,25.10
2010,08,17,15,45,25.10
2010,08,17,15,46,25.10
2010,08,17,15,47,25.10
2010,08,17,15,48,25.00
2010,08,17,15,49,25.00
2010,08,17,15,50,25.10
2010,08,17,15,51,25.10
2010,08,17,15,52,25.10
2010,08,17,15,53,25.10
2010,08,17,15,54,25.10
2010,08,17,15,55,25.10
2010,08,17,15,56,25.00
2010,08,17,15,57,25.10
2010,08,17,15,58,25.00
2010,08,17,15,59,25.00
2010,08,17,16,00,24.90
2010,08,17,16,01,24.80
2010,08,17,16,02,24.70
2010,08,17,16,03,24.70
2010,08,17,16,04,24.70
2010,08,17,16,05,24.70
2010,08,17,16,06,24.70
2010,08,17,16,07,24.70
2010,08,17,16,08,24.70
2010,08,17,16,09,24.70
2010,08,17,16,10,24.70
2010,08,17,16,11,24.70
2010,08,17,16,12,24.70
2010,08,17,16,13,24.80
2010,08,17,16,14,24.80
2010,08,17,16,15,24.80
2010,08,17,16,16,24.80
2010,08,17,16,17,24.70
2010,08,17,16,18,24.70
2010,08,17,16,19,24.60
2010,08,17,16,20,24.50
2010,08,17,16,21,24.40
2010,08,17,16,22,24.40
2010,08,17,16,23,24.30
2010,08,17,16,24,24.20
2010,08,17,16,25,24.20
2010,08,17,16,26,24.10
2010,08,17,16,27,24.10
2010,08,17,16,28,24.00
2010,08,17,16,29,23.90
2010,08,17,16,30,23.80
2010,08,17,16,31,23.80
2010,08,17,16,32,23.70
2010,08,17,16,33,23.60
2010,08,17,16,34,23.50
2010,08,17,16,35,23.40
2010,08,17,16,36,23.30
2010,08,17,16,37,23.30
2010,08,17,16,38,23.20
2010,08,17,16,39,23.00
2010,08,17,16,40,22.90
2010,08,17,16,41,22.80
2010,08,17,16,42,22.80
2010,08,17,16,43,22.70
2010,08,17,16,44,22.60
2010,08,17,16,45,22.60
2010,08,17,16,46,22.50
2010,08,17,16,47,22.50
2010,08,17,16,48,22.40
2010,08,17,16,49,22.40
2010,08,17,16,50,22.30
2010,08,17,16,51,22.20
2010,08,17,16,52,22.10
2010,08,17,16,53,22.00
2010,08,17,16,54,21.90
2010,08,17,16,55,21.80
2010,08,17,16,56,21.80
2010,08,17,16,57,21.70
2010,08,17,16,58,21.70
2010,08,17,16,59,21.70
2010,08,17,17,00,21.60
2010,08,17,17,01,21.50
2010,08,17,17,02,21.40
2010,08,17,17,03,21.40
2010,08,17,17,04,21.40
2010,08,17,17,05,21.40
2010,08,17,17,06,21.30
2010,08,17,17,07,21.30
2010,08,17,17,08,21.20
2010,08,17,17,09,21.10
2010,08,17,17,10,21.00
2010,08,17,17,11,20.90
2010,08,17,17,12,20.80
2010,08,17,17,13,20.80
2010,08,17,17,14,20.70
2010,08,17,17,15,20.80
2010,08,17,17,16,20.80
2010,08,17,17,17,20.80
2010,08,17,17,18,20.80
2010,08,17,17,19,20.80